User: anonymous   Login
Location: Unspecified
(0.0000°N, 0.0000°E)
Time: 20:05:48
(UTC+00:00)
Language:

STARLINK-32341 - Orbit

View from above orbital plane
View from above orbital plane
View from above satellite
View from above satellite

Ground track
Ground track

The orbit is defined by the following mean orbital elements,

1 61639U          26145.50535955 +.00000000 +00000-0 +59889-4 0 00006
2 61639  42.9993  80.7471 0000691 255.5447 104.5328 15.27570810    07
Epoch (UTC): 25 May 2026 12:07:43
Eccentricity: 0.0000691
inclination: 42.9993°
perigee height: 483 km
apogee height: 484 km
right ascension of ascending node: 80.7471°
argument of perigee: 255.5447°
revolutions per day: 15.27570810
mean anomaly at epoch: 104.5328°

The dashed part of the orbit path shows where the satellite is in the earth's shadow,  

DLR